DW5338 Weather Reports


Display with metric or nautical units.
time (UTC)temp
F
wind
direction
speed
MPH
gust
MPH
rain 1hr
in
rain 24hr
in
rain mn
in
humidity
%
barometer
mb
20260509134515 47 315 1.0 4.0 0.00 0.00 0.00 46 1017.8
20260509133515 48 225 2.0 5.0 0.00 0.00 0.00 42 1018.0
20260509132517 46 270 5.0 8.0 0.00 0.00 0.00 41 1017.7
20260509131517 44 270 5.0 8.0 0.00 0.00 0.00 48 1017.5
20260509130537 45 225 2.0 5.0 0.00 0.00 0.00 47 1017.5
20260509125521 44 293 6.0 10.0 0.00 0.00 0.00 50 1017.4
20260509124520 44 270 3.0 8.0 0.00 0.00 0.00 49 1017.1
20260509123517 45 248 3.0 9.0 0.00 0.00 0.00 47 1017.0
20260509122517 46 270 6.0 10.0 0.00 0.00 0.00 45 1016.8
20260509121537 47 248 5.0 10.0 0.00 0.00 0.00 43 1016.8
20260509120517 47 225 8.0 17.0 0.00 0.00 0.00 44 1016.8
20260509115517 47 248 10.0 17.0 0.00 0.00 0.00 44 1016.7
20260509114537 47 270 16.0 28.0 0.00 0.00 0.00 43 1016.3
20260509113517 47 248 12.0 21.0 0.00 0.00 0.00 46 1016.0
20260509112517 47 248 12.0 20.0 0.00 0.00 0.00 46 1016.1
20260509111517 47 248 11.0 19.0 0.00 0.00 0.00 46 1016.0
20260509110517 47 225 10.0 18.0 0.00 0.00 0.00 45 1016.7
20260509105522 47 248 9.0 16.0 0.00 0.00 0.00 45 1016.9
20260509104517 48 270 8.0 18.0 0.00 0.00 0.00 44 1017.0
20260509103517 47 270 10.0 18.0 0.00 0.00 0.00 44 1016.7
20260509102517 47 270 9.0 15.0 0.00 0.00 0.00 46 1016.6
20260509101520 47 270 11.0 17.0 0.00 0.00 0.00 45 1016.5
20260509100520 48 270 9.0 21.0 0.00 0.00 0.00 44 1016.9
20260509095520 47 270 9.0 18.0 0.00 0.00 0.00 44 1016.9
20260509094517 48 270 9.0 16.0 0.00 0.00 0.00 44 1016.9
20260509093520 48 270 10.0 19.0 0.00 0.00 0.00 42 1016.8
20260509092517 48 270 10.0 17.0 0.00 0.00 0.00 43 1017.0
20260509091516 48 248 9.0 14.0 0.00 0.00 0.00 43 1016.8
20260509090516 48 248 7.0 14.0 0.00 0.00 0.00 44 1016.9
20260509085517 48 248 7.0 16.0 0.00 0.00 0.00 43 1016.8
20260509084517 49 248 8.0 13.0 0.00 0.00 0.00 43 1016.8
20260509083516 49 248 9.0 14.0 0.00 0.00 0.00 43 1016.8
20260509082516 48 270 8.0 14.0 0.00 0.00 0.00 43 1016.6
20260509081516 49 225 9.0 14.0 0.00 0.00 0.00 42 1017.0
20260509080516 49 270 10.0 17.0 0.00 0.00 0.00 43 1016.8
20260509075517 48 248 8.0 14.0 0.00 0.00 0.00 44 1016.8
20260509074517 48 270 9.0 16.0 0.00 0.00 0.00 43 1016.9
20260509073516 48 270 6.0 11.0 0.00 0.00 0.00 44 1016.8
20260509072516 47 248 5.0 9.0 0.00 0.00 0.00 47 1017.0
20260509071520 43 225 5.0 8.0 0.00 0.00 0.00 53 1016.7
20260509070520 42 180 5.0 8.0 0.00 0.00 0.00 59 1016.4
20260509065520 43 203 4.0 7.0 0.00 0.00 0.00 58 1016.7
20260509064516 43 203 5.0 9.0 0.00 0.00 0.00 58 1016.6
20260509063540 44 203 4.0 8.0 0.00 0.00 0.00 55 1016.7
20260509062520 45 270 7.0 14.0 0.00 0.00 0.00 51 1016.6
20260509061520 43 203 3.0 7.0 0.00 0.00 0.00 59 1016.7
20260509060516 43 225 3.0 6.0 0.00 0.00 0.00 59 1016.6
20260509055516 42 225 2.0 6.0 0.00 0.00 0.00 65 1016.5
20260509054516 43 180 4.0 7.0 0.00 0.00 0.00 64 1016.8
20260509053559 43 225 1.0 4.0 0.00 0.00 0.00 64 1016.8
20260509052520 43 203 3.0 5.0 0.00 0.00 0.00 67 1016.9
20260509051520 45 225 3.0 5.0 0.00 0.00 0.00 67 1017.3
20260509050520 45 248 5.0 8.0 0.00 0.00 0.00 65 1017.6
20260509045519 45 270 3.0 7.0 0.00 0.00 0.00 68 1017.7
20260509044536 45 270 5.0 9.0 0.00 0.00 0.00 68 1017.7
20260509043516 45 248 5.0 9.0 0.00 0.00 0.00 69 1017.6
20260509042556 46 270 2.0 4.0 0.00 0.00 0.00 68 1017.7
20260509041516 46 225 3.0 7.0 0.00 0.00 0.00 68 1017.9
20260509040516 46 248 3.0 6.0 0.00 0.00 0.00 68 1018.1
20260509035516 46 248 3.0 5.0 0.00 0.00 0.00 69 1018.3
20260509034516 46 248 3.0 5.0 0.00 0.00 0.00 69 1018.3
20260509033519 46 225 4.0 6.0 0.00 0.00 0.00 69 1018.1
20260509032520 46 203 3.0 5.0 0.00 0.00 0.00 68 1018.1
20260509031519 47 225 4.0 7.0 0.00 0.00 0.00 67 1018.2
20260509030519 47 203 3.0 5.0 0.00 0.00 0.00 66 1018.0
20260509025519 48 180 1.0 3.0 0.00 0.00 0.00 63 1017.9
20260509024519 50 0.0 0.0 0.00 0.00 0.00 61 1018.1
20260509023516 50 0.0 2.0 0.00 0.00 0.00 60 1017.7
20260509021516 50 0.0 1.0 0.00 0.00 0.00 59 1017.5
20260509020516 51 0.0 1.0 0.00 0.00 0.00 59 1017.2
20260509015516 51 0.0 2.0 0.00 0.00 0.00 58 1017.1
20260509014519 51 135 1.0 2.0 0.00 0.00 0.00 57 1017.2
20260509013519 52 90 1.0 4.0 0.00 0.00 0.00 57 1017.0
20260509012519 52 90 2.0 6.0 0.00 0.00 0.00 56 1017.0
20260509011516 52 113 2.0 4.0 0.00 0.00 0.00 56 1017.0
20260509010519 53 90 3.0 6.0 0.00 0.00 0.00 55 1016.9
20260509005559 53 113 3.0 7.0 0.00 0.00 0.00 56 1017.0
20260509004519 53 90 3.0 6.0 0.00 0.00 0.00 55 1016.9
20260509003519 54 90 5.0 10.0 0.00 0.00 0.00 54 1016.8
20260509002516 54 68 2.0 5.0 0.00 0.00 0.00 55 1016.8
20260509001519 54 68 2.0 5.0 0.00 0.00 0.00 55 1016.8
20260509000516 54 90 2.0 6.0 0.00 0.00 0.00 54 1017.0
20260508235516 54 68 3.0 8.0 0.00 0.00 0.00 53 1017.0
20260508234516 55 68 4.0 10.0 0.00 0.00 0.00 52 1017.0
20260508233536 55 45 4.0 10.0 0.00 0.00 0.00 52 1017.0
20260508232516 56 23 4.0 11.0 0.00 0.00 0.00 51 1017.2
20260508231516 56 45 4.0 11.0 0.00 0.00 0.00 52 1017.3
20260508230516 55 45 7.0 12.0 0.00 0.00 0.00 52 1017.7
20260508225516 55 45 5.0 12.0 0.00 0.00 0.00 53 1017.8
20260508224516 55 45 4.0 11.0 0.00 0.00 0.00 52 1017.8
20260508223519 55 45 8.0 13.0 0.00 0.00 0.00 52 1017.1
20260508222519 56 68 5.0 12.0 0.00 0.00 0.00 53 1017.1
20260508221539 54 45 7.0 13.0 0.00 0.00 0.00 55 1017.3
20260508220539 55 45 5.0 13.0 0.00 0.00 0.00 55 1017.1
20260508215515 54 45 8.0 14.0 0.00 0.00 0.00 53 1017.2
20260508214515 55 90 6.0 13.0 0.00 0.00 0.00 54 1017.3
20260508213516 56 68 5.0 11.0 0.00 0.00 0.00 53 1017.3
20260508212515 56 90 4.0 13.0 0.00 0.00 0.00 55 1017.5
20260508211515 54 23 5.0 11.0 0.00 0.00 0.00 57 1017.3
20260508210519 55 45 5.0 10.0 0.00 0.00 0.00 55 1017.6
20260508205535 55 90 4.0 11.0 0.00 0.00 0.00 58 1017.5
20260508204515 54 45 7.0 14.0 0.00 0.00 0.00 57 1017.4
20260508203555 54 23 5.0 13.0 0.00 0.00 0.00 57 1017.6
20260508202516 53 45 9.0 19.0 0.00 0.00 0.00 59 1017.7
20260508201515 53 45 6.0 12.0 0.00 0.00 0.00 60 1017.7
20260508200515 53 45 5.0 12.0 0.00 0.00 0.00 61 1018.2
20260508195515 54 45 4.0 12.0 0.00 0.00 0.00 57 1018.2
20260508194515 52 45 4.0 10.0 0.00 0.00 0.00 61 1018.1
20260508193519 53 68 5.0 13.0 0.00 0.00 0.00 58 1017.9
20260508192519 51 68 6.0 13.0 0.00 0.00 0.00 61 1017.7
20260508191519 51 45 4.0 11.0 0.00 0.00 0.00 63 1017.7
20260508190515 51 90 4.0 9.0 0.00 0.00 0.00 60 1017.6
20260508185515 51 68 4.0 8.0 0.00 0.01 0.00 62 1017.7
20260508184519 51 68 6.0 14.0 0.00 0.01 0.00 60 1017.7
20260508183519 51 90 4.0 10.0 0.00 0.01 0.00 61 1018.0
20260508182519 51 45 5.0 10.0 0.00 0.01 0.00 60 1018.1
20260508181515 52 68 4.0 10.0 0.00 0.01 0.00 57 1018.2
20260508180515 50 68 3.0 7.0 0.00 0.01 0.00 66 1018.3
20260508175515 50 23 6.0 10.0 0.00 0.06 0.00 63 1018.2
20260508174515 50 45 6.0 12.0 0.00 0.06 0.00 62 1018.2
20260508173515 50 68 6.0 12.0 0.00 0.06 0.00 62 1018.4
20260508172519 51 45 5.0 12.0 0.00 0.06 0.00 58 1018.4
20260508171519 50 45 4.0 9.0 0.00 0.06 0.00 58 1018.5
20260508170515 49 68 5.0 9.0 0.00 0.06 0.00 57 1018.7
20260508165516 50 45 2.0 5.0 0.00 0.09 0.00 55 1019.0
20260508164515 51 293 5.0 10.0 0.00 0.09 0.00 37 1018.9
20260508163519 51 270 3.0 9.0 0.00 0.09 0.00 41 1019.0
20260508162518 50 270 2.0 7.0 0.00 0.09 0.00 39 1018.8
20260508161515 50 270 5.0 11.0 0.00 0.09 0.00 40 1018.8
20260508160515 51 293 11.0 19.0 0.00 0.09 0.00 39 1018.9
20260508155515 51 293 8.0 14.0 0.00 0.09 0.00 40 1018.8
20260508154515 50 293 9.0 14.0 0.00 0.09 0.00 41 1018.8
20260508153519 49 293 9.0 14.0 0.00 0.09 0.00 41 1018.9
20260508152518 48 270 11.0 18.0 0.00 0.09 0.00 43 1018.7
20260508151541 48 270 14.0 24.0 0.00 0.09 0.00 42 1018.6
20260508150515 49 293 13.0 21.0 0.00 0.09 0.00 40 1018.9
20260508145515 48 270 5.0 12.0 0.00 0.09 0.00 45 1018.9
20260508144515 46 248 3.0 7.0 0.00 0.09 0.00 58 1018.7
20260508143515 45 225 3.0 7.0 0.00 0.09 0.00 68 1018.4
20260508142515 43 248 3.0 6.0 0.00 0.09 0.00 72 1018.2
20260508141515 41 248 2.0 4.0 0.00 0.09 0.00 80 1018.2
20260508140515 40 203 2.0 7.0 0.00 0.09 0.00 82 1018.5
20260508135515 40 203 2.0 4.0 0.00 0.10 0.00 84 1018.5